Evansville, IN

6:21 AM CDT on March 25, 2017 (GMT -0500)
Evansville Regional

Weather History for KEVV - April, 2012

Change the Weather History Date:

Monday, April 2, 2012

  Actual Average Record
Temperature  
Mean Temperature 73 °F 52 °F  
Max Temperature 84 °F 63 °F 84 °F (2012)
Min Temperature 61 °F 40 °F 27 °F (2013)
Degree Days  
Heating Degree Days 0 14  
Month to date heating degree days 0 28  
Since 1 July heating degree days 3246 4194  
Cooling Degree Days 8 0  
Month to date cooling degree days 14 0  
Year to date cooling degree days 62 3  
Growing Degree Days 24 (Base 50)    
Moisture  
Dew Point 63 °F    
Average Humidity 71    
Maximum Humidity 87    
Minimum Humidity 55    
Precipitation  
Precipitation 0.00 in 0.14 in 1.35 in (1897)
Month to date precipitation 0.00 0.28  
Year to date precipitation 7.65 10.79  
Snow  
Snow 0.00 in 0.00 in T in (1993)
Month to date snowfall 0.0 0.0  
Since 1 July snowfall 0.5 11.7  
Snow Depth 0.00 in    
Sea Level Pressure  
Sea Level Pressure 29.77 in    
Wind  
Wind Speed 3 mph (SE)    
Max Wind Speed 10 mph    
Max Gust Speed 15 mph    
Visibility 8 miles    
Events      
T = Trace of Precipitation, MM = Missing Value Source: NWS Daily Summary

Daily Weather History Graph

Daily Weather History Graph

Search for Another Location

Airport or City:

Trip Planner

Search our weather history database for the weather conditions in past years. The results will help you decide how hot, cold, wet, or windy it might be!

Date:

Astronomy

Apr. 02, 2012 Rise Set
Actual Time 6:33 AM CDT 7:14 PM CDT
Civil Twilight 6:06 AM CDT 7:41 PM CDT
Nautical Twilight 5:35 AM CDT 8:12 PM CDT
Astronomical Twilight 5:02 AM CDT 8:45 PM CDT
Moon 2:53 PM CDT (4/2) 3:41 AM CDT (4/2)
Length of Visible Light 13h 34m
Length of Day
12h 41m
Waxing Gibbous, 78% of the Moon is Illuminated
Apr 2
Waxing Gibbous
Apr 6
Full
Apr 13
Last Quarter
Apr 21
New
Apr 29
First Quarter

Hourly Weather History & Observations

Time (CDT) Temp. Heat Index Dew Point Humidity Pressure Visibility Wind Dir Wind Speed Gust Speed Precip Events Conditions
12:54 AM 66.9 °F - 61.0 °F 81% 29.67 in 10.0 mi SW 5.8 mph - N/A   Clear
1:54 AM 64.0 °F - 60.1 °F 87% 29.68 in 10.0 mi SW 5.8 mph - N/A   Clear
2:54 AM 64.9 °F - 61.0 °F 87% 29.67 in 10.0 mi SSW 4.6 mph - N/A   Clear
3:54 AM 64.9 °F - 61.0 °F 87% 29.68 in 10.0 mi Calm Calm - N/A   Clear
4:54 AM 64.9 °F - 61.0 °F 87% 29.69 in 10.0 mi Calm Calm - N/A   Clear
5:54 AM 64.0 °F - 61.0 °F 90% 29.72 in 10.0 mi SSW 3.5 mph - N/A   Clear
6:54 AM 64.0 °F - 61.0 °F 90% 29.75 in 8.0 mi Calm Calm - N/A   Clear
7:54 AM 69.1 °F - 63.0 °F 81% 29.77 in 7.0 mi Calm Calm - N/A   Clear
8:54 AM 72.0 °F - 64.0 °F 76% 29.79 in 9.0 mi Calm Calm - N/A   Clear
9:54 AM 75.0 °F - 64.0 °F 69% 29.80 in 9.0 mi Calm Calm - N/A   Clear
10:54 AM 79.0 °F - 64.9 °F 62% 29.80 in 9.0 mi ENE 4.6 mph - N/A   Clear
11:54 AM 79.0 °F - 64.9 °F 62% 29.80 in 9.0 mi Calm Calm - N/A   Clear
12:54 PM 81.0 °F 83.0 °F 66.0 °F 60% 29.80 in 9.0 mi East 4.6 mph - N/A   Mostly Cloudy
1:54 PM 82.9 °F 85.0 °F 66.0 °F 56% 29.79 in 6.0 mi SSE 6.9 mph - N/A   Haze
2:54 PM 82.9 °F 85.4 °F 66.9 °F 58% 29.78 in 7.0 mi South 4.6 mph - N/A   Scattered Clouds
3:54 PM 82.9 °F 85.0 °F 66.0 °F 56% 29.78 in 8.0 mi South 3.5 mph - N/A   Scattered Clouds
4:54 PM 84.0 °F 86.3 °F 66.0 °F 55% 29.76 in 8.0 mi SE 4.6 mph - N/A   Haze
5:54 PM 82.9 °F 84.6 °F 64.9 °F 54% 29.76 in 6.0 mi ESE 5.8 mph - N/A   Haze
6:54 PM 79.0 °F - 64.9 °F 62% 29.77 in 8.0 mi ENE 5.8 mph - N/A   Haze
7:54 PM 75.0 °F - 61.0 °F 62% 29.80 in 8.0 mi East 4.6 mph - N/A   Clear
8:54 PM 72.0 °F - 61.0 °F 68% 29.84 in 10.0 mi East 4.6 mph - N/A   Clear
9:54 PM 70.0 °F - 60.1 °F 71% 29.86 in 9.0 mi East 4.6 mph - N/A   Clear
10:54 PM 66.0 °F - 60.1 °F 81% 29.85 in 8.0 mi East 3.5 mph - N/A   Clear
11:54 PM 63.0 °F - 57.9 °F 84% 29.86 in 7.0 mi Calm Calm - N/A   Clear